Location: Buch
(49.7331°N, 12.1098°E)
Time: 08:21:12
(UTC+00:00)

Cosmos 1943 Rocket - Pass Details

Date: 12 May 2021
Orbit: 813 x 842 km, 71.0° (Epoch: 13 June)

Event Time Altitude Azimuth Distance (km) Brightness Sun altitude
Exits shadow 20:12:58 11° 108° (ESE) 2,351 4.0 -11.7°
Maximum altitude 20:14:08 12° 95° (E) 2,303 4.0 -11.8°
Drops below altitude 10° 20:16:11 10° 74° (ENE) 2,447 4.4 -12.1°
Sets 20:20:15 0° 45° (NE) 3,381 5.4 -12.5°
